Погода в Монтагу

ЮАР     33°47′11″S   20°07′16″E
темп.,
°C
ветер,
м/с
пор.,
м/с
влажн.,
%
обл.,
%
осадки,
мм/ч
давл.,
гПа
погр.,
м
20 января, ср
ср2023:00+16ююв458165 0.1 1018636
02:00+15юв348766 0.4 1018380
05:00+15юв128588 0.2 1017257
08:00+16юв237765 0.2 1018506
11:00+23в234213 0.0 10171121
14:00+30ююв34227 0.0 10131799
17:00+27ююв66400 0.0 1013819
20:00+21ююв45650 0.0 1013534
21 января, чт
чт2123:00+17ююв22798 0.0 1015322
02:00+16юв228717 0.0 1013179
05:00+16в128446 0.0 1013126
08:00+21вюв126126 0.0 1013286
11:00+27ююв32400 0.0 1012656
14:00+32ююв432825 0.0 1010995
17:00+26ююв555229 0.0 1011866
20:00+20ю457861 0.0 1014543
22 января, пт
пт2223:00+18ююв3485100 0.1 1016370
02:00+18юв2383100 0.1 1014343
05:00+17вюв128958 0.0 1013120
08:00+19юв227934 0.0 1012385
11:00+26ююв325013 0.0 1011832
14:00+31ю32336 0.0 10091461
17:00+30ююв66400 0.0 10081021
20:00+22ююв45738 0.0 1009612
23 января, сб
сб2323:00+20ююв118238 0.0 1010307
02:00+19в018324 0.0 100861
05:00+18юз11890 0.0 100733
08:00+21юз22720 0.0 1008359
11:00+29юз34350 0.0 10081176
14:00+34з8890 0.0 10071825
17:00+31зюз47140 0.0 10071524
20:00+22ююв44420 0.0 1011561
24 января, вс
вс2423:00+17ююв458211 0.1 1014464
02:00+15юв678655 0.8 1015454
05:00+15ююв4579100 0.2 1016575
08:00+15юв457698 0.4 1017615
11:00+18юв455899 0.1 10161033
14:00+22ююв554590 0.1 10151344
17:00+20ююв775238 0.0 10131098
20:00+17юв456638 0.0 1014755